Regional Weather Roundup
Issued by NWS Sioux Falls, SD

Home | Current Version | Previous Version | Text Only | Print | Product List | Glossary On
Versions: 1 2 3 4 5 6 7 8 9 10 11 12 13 14 15 16 17 18 19 20 21 22 23 24 25 26 27 28 29 30 31 32 33 34 35 36 37 38 39 40 41 42 43 44 45 46 47 48 49 50
000
ASUS43 KFSD 180210
RWRFSD

WEATHER ROUNDUP FOR SE SOUTH DAKOTA/SW MINNESOTA/NW IOWA
NATIONAL WEATHER SERVICE SIOUX FALLS SD
900 PM CDT FRI APR 17 2015

NOTE: "FAIR" INDICATES FEW OR NO CLOUDS BELOW 12,000 FEET WITH NO
SIGNIFICANT WEATHER AND OR OBSTRUCTIONS TO VISIBILITY.


SDZ038>040-050-052>070-180300-
SOUTHEAST SOUTH DAKOTA

CITY           SKY/WX    TMP DP  RH WIND       PRES   REMARKS
BROOKINGS      PTCLDY    61  25  25 N5        30.07R
CHAMBERLAIN    CLOUDY    60  40  48 S5        30.06R
HURON          MOCLDY    61  25  25 NE3       30.04S
MADISON        FAIR      54  27  35 N9        30.05S
MITCHELL       CLOUDY    64  36  35 N6        30.04S
SIOUX FALLS    MOCLDY    65  40  39 N5        30.03R
WINNER         LGT RAIN  56  52  86 NW6       30.06F
YANKTON        CLOUDY    59  48  67 NW9       30.02R
$$

MNZ071-072-080-081-089-090-097-098-180300-
SOUTHWEST MINNESOTA

CITY           SKY/WX    TMP DP  RH WIND       PRES   REMARKS
FAIRMONT       MOCLDY    64  36  34 CALM      30.03R
JACKSON        PTCLDY    63  30  29 VRB6      30.05R
LUVERNE        MOCLDY    64  34  32 NE5       30.05R
MARSHALL       PTCLDY    63  16  16 N5        30.06R
MONTEVIDEO     CLEAR     61  21  21 CALM      30.05R
PIPESTONE      MOCLDY    61  21  21 NE5       30.06R
REDWOOD FALLS  PTCLDY    64  23  21 NW3       30.03R
TRACY          PTCLDY    62  21  21 N5        30.06R
WORTHINGTON    MOCLDY    64  28  25 N8        30.05R
$$

IAZ001>003-012>014-020>022-031-032-NEZ013-014-SDZ071-180300-
NORTHWEST IOWA

CITY           SKY/WX    TMP DP  RH WIND       PRES   REMARKS
CHEROKEE       CLOUDY    64  46  52 NE3       30.02R
DENISON        CLOUDY    66  52  59 E3        29.99R
ESTHERVILLE    PTCLDY    62  39  42 N5        30.03R
LE MARS        CLOUDY    63  52  67 CALM      30.03R
ORANGE CITY    CLOUDY    66  46  48 CALM      30.03S
SHELDON        CLOUDY    64  45  48 NE7       30.02S
SIOUX CITY     CLOUDY    69  44  40 NE7       30.01R
SPENCER        MOCLDY    63  46  54 NE7       30.03R
STORM LAKE     MOCLDY    66  46  48 NE7       30.04R
$$

ABBREVIATIONS USED IN REMARKS
   TC - TEMPERATURE IN CELSIUS
  WCI - WIND CHILL INDEX
   HX - HEAT INDEX
  VSB - VISIBILITY




USA.gov is the U.S. government's official web portal to all federal, state and local government web resources and services.